Tekamah, NE

4:01 AM CDT on July 23, 2017 (GMT -0500)
Tekamah

Weather History for KTQE - December, 2012

Change the Weather History Date:

Thursday, December 13, 2012

  Actual Average Record
Temperature  
Mean Temperature 36 °F -  
Max Temperature 52 °F 37 °F 61 °F (1957)
Min Temperature 19 °F 14 °F -18 °F (1961)
Degree Days  
Heating Degree Days 28    
Moisture  
Dew Point 17 °F    
Average Humidity 48    
Maximum Humidity 71    
Minimum Humidity 31    
Precipitation  
Precipitation 0.00 in - - ()
Sea Level Pressure  
Sea Level Pressure 30.02 in    
Wind  
Wind Speed 11 mph (WSW)    
Max Wind Speed 15 mph    
Max Gust Speed -    
Visibility 9 miles    
Events      
Averages and records for this station are not official NWS values.
T = Trace of Precipitation, MM = Missing Value Source: NWS Daily Summary

Daily Weather History Graph

Daily Weather History Graph

Search for Another Location

Airport or City:

Trip Planner

Search our weather history database for the weather conditions in past years. The results will help you decide how hot, cold, wet, or windy it might be!

Date:

Astronomy

Dec. 13, 2012 Rise Set
Actual Time 7:43 AM CST 4:54 PM CST
Civil Twilight 7:12 AM CST 5:26 PM CST
Nautical Twilight 6:37 AM CST 6:01 PM CST
Astronomical Twilight 6:03 AM CST 6:34 PM CST
Moon 7:53 AM CST (12/13) 5:38 PM CST (12/13)
Length of Visible Light 10h 13m
Length of Day
9h 10m
New Moon, 0% of the Moon is Illuminated
Dec 13
New Moon
Dec 19
First Quarter
Dec 28
Full
Jan 4
Last Quarter
Jan 11
New

Hourly Weather History & Observations

Time (CST) Temp. Windchill Dew Point Humidity Pressure Visibility Wind Dir Wind Speed Gust Speed Precip Events Conditions
12:54 AM 35.1 °F 25.5 °F 15.1 °F 44% 29.95 in 10.0 mi South 15.0 mph - N/A   Clear
1:54 AM 34.0 °F 25.5 °F 15.1 °F 46% 29.95 in 10.0 mi South 11.5 mph - N/A   Clear
2:54 AM 34.0 °F 24.2 °F 15.1 °F 46% 29.96 in 10.0 mi South 15.0 mph - N/A   Clear
3:54 AM 34.0 °F 24.6 °F 16.0 °F 48% 29.95 in 10.0 mi South 13.8 mph - N/A   Clear
4:54 AM 34.0 °F 24.6 °F 16.0 °F 48% 29.95 in 10.0 mi South 13.8 mph - N/A   Clear
5:54 AM 33.1 °F 25.5 °F 17.1 °F 52% 29.96 in 10.0 mi South 9.2 mph - N/A   Clear
6:54 AM 34.0 °F 25.5 °F 17.1 °F 50% 29.99 in 10.0 mi SSW 11.5 mph - N/A   Clear
7:54 AM 32.0 °F 23.0 °F 17.1 °F 54% 30.00 in 10.0 mi South 11.5 mph - N/A   Clear
8:54 AM 37.0 °F 28.9 °F 19.0 °F 48% 30.01 in 10.0 mi South 12.7 mph - N/A   Clear
9:54 AM 41.0 °F 34.7 °F 19.9 °F 43% 30.03 in 10.0 mi WSW 10.4 mph - N/A   Clear
10:54 AM 46.0 °F 43.9 °F 19.9 °F 35% 30.04 in 10.0 mi SW 4.6 mph - N/A   Clear
11:54 AM 50.0 °F - 21.9 °F 33% 30.03 in 10.0 mi WNW 8.1 mph - N/A   Clear
12:54 PM 52.0 °F - 21.9 °F 31% 30.02 in 10.0 mi NW 4.6 mph - N/A   Clear
1:54 PM 52.0 °F - 23.0 °F 32% 30.02 in 10.0 mi WNW 6.9 mph - N/A   Clear
2:54 PM 51.1 °F - 23.0 °F 33% 30.03 in 10.0 mi NNW 8.1 mph - N/A   Clear
3:54 PM 48.9 °F - 21.9 °F 35% 30.05 in 10.0 mi NW 8.1 mph - N/A   Clear
7:54 PM 28.0 °F 20.8 °F 16.0 °F 61% 30.10 in 7.0 mi North 6.9 mph - N/A   Clear
8:54 PM 25.0 °F 18.1 °F 14.0 °F 63% 30.11 in 7.0 mi NNE 5.8 mph - N/A   Clear
9:54 PM 21.0 °F 14.6 °F 10.9 °F 65% 30.12 in 6.0 mi NNW 4.6 mph - N/A   Haze
10:54 PM 21.0 °F 14.6 °F 10.9 °F 65% 30.10 in 5.0 mi North 4.6 mph - N/A   Haze
11:54 PM 19.9 °F 11.1 °F 12.0 °F 71% 30.09 in 6.0 mi NNW 6.9 mph - N/A   Haze